C/2017 K2 ( PanSTARRS )

Japanese version
Home page
Updated on July 8, 2017

---------------------------------------------------------------------

* Profile

Discovery Date May 21, 2017
Magnitude 20.8 mag
Discoverer Pan-STARRS 1 telescope (Haleakala)

* Pictures

* Orbital Elements

Epoch 2022 Dec. 7.0 TT = JDT 2459920.5
T 2022 Dec. 19.98688 TT                                 MPCW
q   1.7967014            (2000.0)            P               Q
z  -0.0004147      Peri.  236.20854     +0.01818710     +0.04923548
 +/-0.0000490      Node    88.23485     -0.18075349     +0.98249163
e   1.0007451      Incl.   87.56315     -0.98336026     -0.17968322
From 217 observations 2013 May 12-2017 July 5, mean residual 0".4.

* Finding Charts

* Magnitudes Graph

        m1 = 1.0 + 5 log d + 10.0 log r

---------------------------------------------------------------------

The orbital elements are published on M.P.E.C. 2017-N58.
The charts are made with StellaNavigator Ver.10 (AstroArts).
The magnitudes graphs are made with Comet for Windows.

---------------------------------------------------------------------

Copyright(C) Seiichi Yoshida (comet@aerith.net). All rights reserved.